一网星座-0209星 (ONEWEB-0209 )

导读 | 星芒AI

ONEWEB-0209 是 OneWeb 卫星通信公司发射的低轨通信卫星之一,属于其全球宽带互联网星座计划。该卫星运行在约 1200 公里的近地轨道,采用先进通信技术,旨在为全球用户提供高速、低延迟的互联网服务。ONEWEB-0209 卫星具备高容量和高可靠性,支持偏远地区和航空、航海等移动场景的网络接入。其发射和部署是 OneWeb 恢复运营、扩大全球覆盖的重要一步,有助于实现数字包容和全球互联互通的目标。

基本信息
目录编号:
48215
目录名称:
ONEWEB-0209
国际标识:
2021-031F
轨道中心:
EARTH
卫星名称:
一网星座-0209星
卫星全名:
一网星座-0209星 (ONEWEB-0209 )
卫星状态:
在轨 (已飞行1695 天)
发射日期:
2021-04-25 UTC
国别 :
英国 (GB)
星等 :
--
轨道信息
数据来源 国际轨道数据 AOE轨道数据
星历时间 2025-12-15T05:14:37+0800
21小时前
查看轨道信息
2025-12-15T15:00:00+0800
12小时前
查看轨道信息
半长轴 7583.927km 7583.924km
偏心率 0.0001566 0.0001852
轨道倾角 87.899° 87.899°
近地点辐角 85.384° 86.470°
升交点赤经 326.443° 326.364°
平近点角 274.747° 36.295°
近地点 1204.604km 1204.384km
远地点 1206.98km 1207.194km
周期 109.547分钟 109.547分钟
每日圈数 13.145029 13.145039
详细信息
平衡模式:
三轴稳定
覆盖范围:
全球
运营商:
一网卫星公司
运营商所在国:
英国
制造商(研发单位):
一网卫星公司
制造商所在国:
英国
使用方式:
暂无
卫星简介
OneWeb卫星网络由648颗重约125公斤的微型卫星组成,运行在1200公里的轨道上。 每颗卫星都能够提供至少每秒8千兆位的吞吐量,以使用其高吞吐量的Ku频段有效载荷为家庭和移动平台提供互联网接入。该卫星仍在工作。
2D轨道图
3D轨道图
轨道高度分析图
轨道倾角分析图
轨道综合分析图
查看轨道综合分析图